• Join FlightAware (Why Join?)
  • Login
  • US Flag 
10:51PM EDT


 

Airport Tracker/Info


-or-


 

Live Flight TrackerFlight Track Log ✈ LOF3416 ✈ 20-Apr-2013 ✈ KSTL - KORD

Flight Track Log - Related Links

Times and Time Zones

All times are in EDT time to prevent confusion due to time zone crossing. See the LOF3416 flight status page for this flight to view local times or setup timezone preferences in your user account.

Time Position Orientation Groundspeed Altitude Reporting Facility
EDT Latitude Longitude Course Direction KTS MPH feet Rate Location/Type
04:57PM 38.7594 -90.3631 356° North 159 183 1,400  Level FAA TRACON SMA TRACON (SMA)
04:57PM 38.7711 -90.3736 325° Northwest 170 196 2,100 2,280 Climbing FAA TRACON SMA TRACON (SMA)
04:57PM 38.7906 -90.3756 356° North 184 212 2,900 2,400 Climbing FAA TRACON SMA TRACON (SMA)
04:58PM 38.8067 -90.3800 348° North 192 221 3,700 2,160 Climbing FAA TRACON SMA TRACON (SMA)
04:58PM 38.8233 -90.3856 345° North 199 229 4,400 2,700 Climbing FAA TRACON SMA TRACON (SMA)
04:58PM 38.8447 -90.3814 North 208 239 5,500 2,760 Climbing FAA TRACON SMA TRACON (SMA)
04:59PM 38.8611 -90.3739 20° North 208 239 6,200 2,040 Climbing FAA TRACON SMA TRACON (SMA)
04:59PM 38.8786 -90.3667 18° North 211 243 6,900 2,100 Climbing FAA TRACON SMA TRACON (SMA)
04:59PM 38.9017 -90.3569 18° North 224 258 7,600 1,980 Climbing FAA TRACON SMA TRACON (SMA)
05:00PM 38.9449 -90.2000 North  Level FlightAware Approximate
05:00PM 38.9214 -90.3494 16° North 237 273 8,200  Level FAA TRACON SMA TRACON (SMA)
05:00PM 38.9411 -90.3414 18° North 244 281 8,900 2,340 Climbing FAA TRACON SMA TRACON (SMA)
05:00PM 38.9669 -90.3297 19° North 252 290 9,800 2,280 Climbing FAA TRACON SMA TRACON (SMA)
05:01PM 39.0295 -90.2013 356° North  Level FlightAware Approximate
05:01PM 38.9878 -90.3208 18° North 255 293 10,400  Level FAA TRACON SMA TRACON (SMA)
05:01PM 39.0097 -90.3117 18° North 265 305 10,800 1,440 Climbing FAA TRACON SMA TRACON (SMA)
05:01PM 39.0383 -90.3014 16° North 279 321 11,400 1,560 Climbing FAA TRACON SMA TRACON (SMA)
05:02PM 39.1140 -90.2097 356° North  Level FlightAware Approximate
05:02PM 39.0622 -90.2914 18° North 289 333 11,900  Level FAA TRACON SMA TRACON (SMA)
05:02PM 39.0861 -90.2814 18° North 294 338 12,400 1,680 Climbing FAA TRACON SMA TRACON (SMA)
05:02PM 39.1169 -90.2683 18° North 301 346 13,000 1,680 Climbing FAA TRACON SMA TRACON (SMA)
05:03PM 39.1422 -90.2586 17° North 307 353 13,500 1,560 Climbing FAA TRACON SMA TRACON (SMA)
05:03PM 39.1675 -90.2483 17° North 311 358 14,100 1,920 Climbing FAA TRACON SMA TRACON (SMA)
05:03PM 39.1994 -90.2350 18° North 315 362 14,800 1,800 Climbing FAA TRACON SMA TRACON (SMA)
05:04PM 39.2256 -90.2250 17° North 319 367 15,300 1,560 Climbing FAA TRACON SMA TRACON (SMA)
05:04PM 39.2514 -90.2133 19° North 320 368 15,900 1,800 Climbing FAA TRACON SMA TRACON (SMA)
05:04PM 39.2842 -90.1986 19° North 323 372 16,500 1,680 Climbing FAA TRACON SMA TRACON (SMA)
05:05PM 39.3114 -90.1878 17° North 328 377 17,000 1,440 Climbing FAA TRACON SMA TRACON (SMA)
05:05PM 39.3381 -90.1769 17° North 328 377 17,500 1,140 Climbing FAA TRACON SMA TRACON (SMA)
05:05PM 39.3725 -90.1647 15° North 332 382 17,800 1,200 Climbing FAA TRACON SMA TRACON (SMA)
05:06PM 39.3997 -90.1569 12° North 331 381 18,300 1,680 Climbing FAA TRACON SMA TRACON (SMA)
05:06PM 39.4278 -90.1506 10° North 331 381 18,900 1,800 Climbing FAA TRACON SMA TRACON (SMA)
05:06PM 39.4625 -90.1408 12° North 331 381 19,500 1,560 Climbing FAA TRACON SMA TRACON (SMA)
05:07PM 39.4908 -90.1361 North 332 382 20,000 1,320 Climbing FAA TRACON SMA TRACON (SMA)
05:07PM 39.5194 -90.1311 North 337 388 20,400 1,020 Climbing FAA TRACON SMA TRACON (SMA)
05:07PM 39.5564 -90.1228 10° North 347 399 20,700 720 Climbing FAA TRACON SMA TRACON (SMA)
05:08PM 39.5867 -90.1167 North 356 410 20,900 420 Climbing FAA TRACON SMA TRACON (SMA)
05:08PM 39.6169 -90.1067 14° North 363 418 21,000 120 Climbing FAA TRACON SMA TRACON (SMA)
05:08PM 39.6572 -90.0975 10° North 379 436 21,000  Level FAA TRACON SMA TRACON (SMA)
05:09PM 39.6906 -90.0906 North 391 450 21,000  Level FAA TRACON SMA TRACON (SMA)
05:09PM 39.7247 -90.0833 North 402 463 21,000  Level FAA TRACON SMA TRACON (SMA)
05:09PM 39.7475 -90.1375 299° West 397 457 21,000  Level Chicago Center
05:10PM 39.8850 -90.1036 11° North 418 481 21,000  Level Chicago Center
05:11PM 39.9950 -90.0797 North 404 465 21,000  Level Chicago Center
05:12PM 40.1022 -90.0486 13° North 396 456 21,000  Level Chicago Center
05:13PM 40.2042 -90.0025 19° North 391 450 21,000  Level Chicago Center
05:14PM 40.3061 -89.9608 17° North 384 442 21,000  Level Chicago Center
05:15PM 40.4058 -89.9164 19° North 379 436 21,000  Level Chicago Center
05:16PM 40.5086 -89.8731 18° North 382 440 21,000  Level Chicago Center
05:17PM 40.6119 -89.8269 19° North 388 447 21,000  Level Chicago Center
05:18PM 40.7378 -89.7717 18° North 396 456 21,000  Level Chicago Center
05:20PM 40.8369 -89.6917 31° Northeast 419 482 21,000  Level Chicago Center
05:21PM 40.9192 -89.5733 47° Northeast 435 501 21,000  Level Chicago Center
05:22PM 40.9942 -89.4658 47° Northeast 434 499 21,000 -480 Level Chicago Center
05:23PM 41.0922 -89.3242 47° Northeast 434 499 20,100 -1,440 Descending Chicago Center
05:24PM 41.1711 -89.2111 47° Northeast 422 486 18,100 -1,920 Descending Chicago Center
05:25PM 41.2486 -89.0975 48° Northeast 393 452 16,200 -1,920 Descending Chicago Center
05:26PM 41.3161 -88.9969 48° Northeast 371 427 14,200 -2,040 Descending Chicago Center
05:27PM 41.3819 -88.8994 48° Northeast 357 411 12,100 -1,620 Descending Chicago Center
05:28PM 41.4467 -88.8061 47° Northeast 346 398 11,000 -540 Descending Chicago Center
05:29PM 41.5106 -88.7086 49° Northeast 350 403 11,000  Level Chicago Center
05:30PM 41.5592 -88.5906 61° Northeast 367 422 11,100  Climbing Chicago Center
05:31PM 41.6067 -88.4717 62° Northeast 365 420 11,000 -60 Descending Chicago Center
05:32PM 41.6672 -88.3653 53° Northeast 359 413 11,000  Level Chicago Center
05:33PM 41.7281 -88.2617 52° Northeast 355 409 11,000 -300 Level Chicago Center
05:34PM 41.7956 -88.1453 52° Northeast 325 374 10,500 -1,080 Descending Chicago Center
05:35PM 41.8411 -88.0669 52° Northeast 272 313 8,900 -1,680 Descending Chicago Center
05:36PM 41.8833 -87.9853 55° Northeast 267 307 7,100 -1,260 Descending Chicago Center
05:36PM 41.8833 -87.9333 90° East 255 293 7,000 -120 Descending Chicago TRACON
05:37PM 41.8833 -87.8500 90° East 233 268 7,000 -180 Level Chicago TRACON
05:38PM 41.8833 -87.7667 90° East 199 229 6,700 -900 Descending Chicago TRACON
05:39PM 41.8833 -87.7000 90° East 192 221 5,300 -1,500 Descending Chicago TRACON
05:40PM 41.9333 -87.6833 14° North 172 198 3,800 -1,380 Descending Chicago TRACON
05:41PM 41.9500 -87.7333 294° West 165 190 2,600 -900 Descending Chicago TRACON
05:42PM 41.9667 -87.8000 289° West 156 180 2,100 -540 Descending Chicago TRACON